Wind_Speed
24 24 25 25 25 26 28 28 28 26 26 26 26 26 26 27 27 27 27 28 29 30 31 31 32 32 32 31 32 34 36 36 38 38 38 38 39 40 41 41 42 42 42 42
25 25 26 26 26 26 27 27 27 27 26 25 25 26 26 26 26 27 27 27 27 27 28 28 29 29 30 31 32 32 33 34 35 36 38 38 39 38 38 38 40 40 41 40
25 25 26 25 25 25 25 25 26 26 25 24 24 25 25 24 24 26 26 26 27 27 27 27 28 28 28 29 30 30 30 31 33 33 35 35 36 36 35 35 37 38 38 38
26 26 26 25 25 26 26 25 25 25 24 24 25 25 25 25 25 25 26 26 27 27 27 28 28 28 29 29 28 29 30 31 32 33 34 34 35 34 34 34 34 35 36 37
26 26 26 24 24 25 25 24 24 25 25 25 26 26 26 27 27 26 26 27 27 27 27 28 28 27 27 28 28 28 29 30 31 32 32 33 33 33 33 33 33 34 34 34
26 26 26 24 25 26 26 25 25 25 26 26 26 26 27 28 28 27 27 27 27 27 27 28 28 28 28 28 28 28 29 29 29 30 30 31 31 31 31 31 31 32 31 31
26 27 26 26 27 27 27 27 27 26 26 27 27 27 27 28 28 28 27 27 27 27 27 27 27 28 29 29 29 29 29 28 28 28 28 29 30 30 30 30 30 30 30 31
27 28 27 27 28 28 28 28 28 28 28 29 29 30 29 29 28 28 27 26 26 26 27 28 28 29 28 28 29 29 29 28 28 28 29 29 29 29 30 30 30 31 31 30
27 27 27 28 28 29 29 29 29 29 29 30 30 31 31 30 30 30 29 29 28 28 28 28 29 29 29 29 29 29 28 29 29 28 29 28 28 29 29 30 31 30 31 30
28 27 28 29 29 30 30 30 30 30 30 30 30 30 30 31 30 30 30 30 29 29 29 29 29 29 30 29 28 28 28 28 28 28 28 28 28 28 29 30 30 30 29 29
29 28 28 29 30 31 31 31 31 31 30 30 30 30 29 29 29 29 30 30 30 30 29 29 29 29 29 28 28 28 28 28 27 28 28 28 28 28 29 29 29 29 28 28
30 29 29 29 30 31 31 31 31 31 30 30 30 29 29 28 28 29 29 29 29 29 29 29 30 30 29 29 29 28 28 28 27 27 27 28 27 27 28 28 28 28 28 28
29 29 29 29 30 30 30 29 29 29 29 29 29 29 28 28 29 29 29 29 29 29 29 29 29 29 29 29 28 28 27 27 27 27 27 27 27 27 26 26 26 26 26 27
28 28 28 28 29 29 28 28 28 28 28 28 28 28 28 28 28 28 29 28 28 28 28 29 29 29 28 28 27 27 26 26 26 25 25 26 25 25 25 25 25 25 25 25
27 27 27 27 27 27 27 27 27 27 27 27 27 27 28 27 27 27 27 27 28 28 28 28 28 27 27 27 27 26 25 25 24 24 24 24 23 23 23 23 23 23 23 23
25 25 25 26 26 25 26 27 27 26 26 26 26 26 27 27 27 27 26 27 27 27 27 27 26 26 26 25 25 24 24 23 22 22 21 21 21 20 20 20 20 21 21 21
24 24 24 24 25 25 26 26 26 26 26 27 26 26 26 26 26 26 26 26 26 26 25 25 24 24 23 23 23 22 21 21 20 20 20 19 19 19 18 18 18 19 19 19
24 24 24 24 25 26 26 26 26 26 26 26 26 25 25 25 25 25 26 26 25 25 25 24 23 22 21 20 19 19 19 18 18 18 18 17 17 16 16 16 16 17 17 17
24 24 24 25 26 26 26 26 26 25 25 25 25 25 24 24 24 24 24 24 24 24 23 22 21 20 19 18 18 17 17 17 17 17 16 16 16 16 16 16 16 16 15 15
25 25 25 26 27 26 26 26 25 24 24 24 24 24 24 24 23 23 23 23 22 22 21 20 19 18 18 17 17 16 16 15 15 15 15 15 15 15 15 15 14 13 13 13
26 26 26 26 26 26 25 25 24 24 24 24 23 23 23 23 22 22 22 21 20 20 19 18 17 17 16 15 15 14 14 13 13 12 13 13 13 13 13 13 13 13 13 13
26 26 26 26 26 25 24 24 24 24 24 23 22 22 21 21 21 20 19 19 18 17 17 16 16 15 14 14 13 13 13 12 11 11 11 11 11 11 11 11 12 12 12 12
25 25 25 25 24 24 24 24 24 24 23 22 21 21 21 21 20 19 18 17 16 16 15 15 14 13 13 13 12 12 11 11 11 11 11 11 11 11 11 11 11 11 11 11
24 24 24 24 24 24 24 23 23 22 21 20 20 20 20 20 19 18 17 16 16 15 15 15 13 12 12 12 11 10 9 10 10 10 10 10 10 10 11 11 11 10 10 10
23 23 23 23 23 23 23 22 22 21 20 20 20 19 19 18 17 17 16 16 15 15 15 14 13 12 11 11 10 10 9 9 9 9 9 9 9 9 9 9 9 10 9 9
23 23 23 22 22 22 21 21 20 20 20 19 19 18 17 17 16 16 16 15 15 14 14 13 13 12 12 11 10 10 10 9 9 9 8 8 8 8 8 8 8 8 8 8
23 22 21 20 20 21 20 20 19 19 18 18 17 17 16 16 16 16 15 14 14 13 13 12 12 11 11 11 10 10 10 10 9 8 7 7 7 7 8 8 8 8 8 8
Wind_Direction
287 288 291 293 292 292 291 290 290 291 290 293 293 291 291 292 292 289 288 285 281 277 275 273 273 273 270 268 265 263 260 258 259 260 260 261 262 263 261 262 263 263 264 265
288 289 289 291 293 293 293 293 291 291 291 292 292 291 291 292 293 292 291 287 284 281 279 276 275 275 274 271 268 265 262 261 260 260 260 260 261 261 262 262 262 262 263 265
290 289 290 292 296 297 297 296 294 293 295 294 292 291 290 292 293 293 293 290 288 287 283 280 278 277 274 272 271 269 265 264 263 262 261 261 260 261 263 264 264 263 264 265
291 290 291 296 296 297 298 297 296 295 293 293 294 294 294 294 296 294 294 292 291 289 286 283 280 279 279 277 273 271 270 271 267 263 262 262 262 264 266 267 267 267 265 265
295 294 294 295 297 299 298 297 296 295 294 293 295 295 294 295 296 297 296 296 295 293 288 285 282 281 280 279 275 274 276 274 270 267 265 263 263 264 266 267 268 268 267 266
295 295 296 297 297 298 298 297 295 294 293 293 293 294 295 296 295 296 295 295 296 295 291 287 284 282 280 278 276 278 279 277 275 272 270 267 266 266 267 268 269 268 266 267
294 294 295 295 296 297 297 296 295 293 292 291 290 292 294 295 295 296 295 293 293 293 291 288 286 284 283 281 279 280 280 278 278 275 273 271 269 268 268 267 268 268 267 268
295 295 295 293 295 296 296 295 294 292 291 290 289 290 291 291 292 293 294 292 291 291 291 290 288 287 286 284 283 281 279 278 277 275 273 271 269 269 269 269 269 269 268 268
294 294 292 291 293 294 293 293 293 291 291 291 290 290 290 290 291 291 291 292 292 292 292 291 289 288 288 287 285 283 280 278 276 274 274 271 269 268 268 268 267 267 267 267
292 292 289 289 290 292 291 291 291 292 293 293 292 292 291 292 292 292 291 292 292 293 292 291 291 290 289 287 284 282 280 278 276 275 275 273 270 268 268 268 266 265 264 265
291 291 289 289 290 291 292 292 291 292 294 294 293 293 293 292 291 291 292 293 292 292 293 292 291 292 292 288 284 282 280 279 278 277 276 274 271 269 268 268 267 264 263 263
292 291 290 290 290 291 292 293 292 293 294 294 294 293 292 291 290 290 292 293 293 293 294 293 292 292 291 288 286 284 282 280 278 277 276 274 271 270 268 268 266 264 263 263
292 291 291 291 290 291 293 294 295 294 295 294 293 292 292 291 291 291 292 293 294 294 294 295 293 292 290 288 286 284 283 281 280 278 275 274 272 270 269 268 267 265 264 263
292 292 291 291 291 292 294 296 297 297 295 294 293 292 291 291 291 291 291 292 292 293 294 295 293 291 289 288 285 284 283 282 280 277 275 274 272 270 269 267 265 264 264 264
295 293 293 293 294 294 294 297 297 297 296 295 294 292 291 290 290 290 291 292 293 294 296 296 294 292 289 287 284 283 282 281 278 275 273 274 273 270 268 266 265 263 264 265
297 298 297 297 297 297 296 296 297 296 296 296 295 293 292 290 290 290 291 293 295 295 295 295 295 293 290 286 284 282 280 278 276 274 274 273 272 271 268 266 264 264 263 263
300 300 300 299 298 297 297 296 296 296 296 296 296 295 293 291 290 290 291 293 295 295 295 295 296 295 293 288 284 282 279 276 274 273 273 273 271 269 266 265 264 263 260 260
301 301 302 302 300 299 298 297 296 297 297 296 297 296 295 293 291 291 292 293 294 294 294 295 295 296 294 290 285 283 280 277 276 275 272 271 270 266 264 265 263 261 260 259
299 300 301 301 301 301 300 300 299 298 297 296 296 296 296 295 294 293 293 294 294 294 294 294 293 293 291 288 286 284 280 277 276 273 269 268 267 266 265 263 261 260 259 258
298 299 300 301 302 302 301 301 301 300 298 296 295 295 296 297 297 296 296 295 295 295 294 294 293 291 289 288 287 285 282 278 274 269 265 264 263 263 263 260 258 256 257 259
297 297 299 301 301 301 300 301 302 301 298 295 295 296 297 297 298 299 299 297 297 297 295 294 293 291 290 288 286 285 283 280 276 270 265 263 262 260 257 254 252 254 256 256
297 297 298 300 300 298 299 301 302 302 299 298 297 297 297 298 300 301 301 299 297 297 297 296 293 290 288 288 286 286 285 281 276 272 268 266 261 255 251 249 249 252 253 253
297 298 298 298 299 297 299 301 302 301 301 300 299 298 299 298 299 299 299 299 298 296 296 296 294 291 289 287 286 285 283 280 277 275 272 268 262 256 251 248 248 248 250 250
298 299 299 298 298 297 298 300 301 302 302 300 299 298 299 299 299 298 297 296 296 295 293 292 291 289 288 286 283 282 282 280 277 274 270 266 262 255 249 247 246 246 247 246
298 298 299 299 299 299 298 299 300 302 302 301 300 299 299 299 298 297 296 295 295 294 292 289 288 287 285 281 277 276 277 276 274 272 269 263 254 247 242 241 242 242 242 240
298 297 297 299 300 301 301 299 299 299 300 302 302 300 300 300 299 298 296 294 293 292 290 286 284 282 279 274 271 270 272 272 268 264 261 255 244 236 234 235 235 234 234 235
297 296 297 298 300 301 302 300 299 299 299 300 301 301 300 300 300 299 298 294 291 290 290 288 284 279 275 271 269 270 270 268 261 255 250 242 235 232 232 233 232 232 234 234
Height
5623 5621 5619 5618 5616 5613 5611 5608 5606 5605 5603 5602 5599 5596 5594 5591 5588 5586 5584 5582 5580 5579 5578 5577 5576 5575 5575 5574 5574 5575 5576 5578 5580 5582 5584 5585 5586 5588 5589 5590 5591 5592 5594 5595
5618 5616 5613 5612 5610 5608 5605 5602 5600 5598 5597 5596 5592 5590 5587 5585 5582 5580 5577 5575 5573 5571 5570 5569 5568 5567 5567 5566 5566 5566 5567 5569 5570 5572 5573 5575 5576 5577 5578 5579 5580 5582 5583 5583
5611 5609 5607 5606 5606 5602 5599 5597 5594 5592 5592 5589 5586 5584 5581 5579 5577 5574 5571 5569 5566 5564 5563 5562 5561 5560 5559 5558 5558 5558 5559 5560 5561 5561 5563 5564 5565 5566 5567 5568 5570 5571 5571 5572
5604 5603 5601 5604 5599 5596 5593 5591 5589 5586 5585 5582 5580 5578 5575 5573 5571 5568 5565 5563 5560 5558 5556 5555 5554 5552 5551 5550 5549 5549 5550 5551 5551 5552 5553 5554 5555 5556 5557 5558 5559 5560 5561 5561
5598 5595 5595 5596 5593 5590 5587 5586 5583 5580 5578 5576 5573 5571 5570 5567 5564 5562 5559 5557 5554 5552 5550 5548 5547 5545 5544 5543 5542 5542 5542 5541 5542 5542 5543 5544 5545 5547 5548 5548 5549 5550 5551 5552
5591 5589 5588 5590 5587 5582 5581 5579 5577 5574 5572 5569 5567 5565 5564 5561 5558 5556 5553 5550 5548 5545 5543 5541 5540 5538 5537 5536 5535 5534 5534 5533 5533 5533 5534 5535 5536 5537 5537 5538 5540 5541 5542 5543
5585 5582 5582 5583 5579 5577 5576 5574 5570 5567 5565 5562 5560 5559 5557 5554 5551 5549 5546 5544 5541 5539 5537 5535 5533 5532 5530 5529 5528 5527 5526 5526 5525 5525 5525 5526 5527 5528 5528 5530 5531 5532 5533 5534
5579 5577 5578 5575 5572 5570 5568 5565 5562 5559 5557 5555 5553 5551 5549 5547 5545 5542 5540 5537 5535 5532 5530 5528 5526 5524 5523 5521 5520 5519 5518 5518 5517 5517 5517 5517 5518 5519 5520 5521 5522 5523 5524 5525
5573 5573 5570 5567 5564 5562 5560 5557 5555 5552 5550 5547 5545 5543 5541 5539 5537 5535 5532 5530 5528 5525 5523 5521 5518 5517 5515 5513 5512 5511 5510 5509 5509 5508 5508 5509 5509 5510 5511 5512 5513 5514 5515 5516
5566 5565 5562 5559 5557 5555 5552 5549 5547 5544 5542 5539 5537 5535 5533 5531 5529 5527 5524 5522 5520 5517 5515 5513 5510 5508 5507 5505 5504 5502 5502 5501 5500 5500 5500 5500 5500 5501 5502 5503 5504 5505 5506 5507
5558 5557 5555 5553 5550 5547 5544 5542 5539 5537 5535 5532 5529 5527 5524 5522 5521 5519 5517 5514 5512 5509 5507 5505 5502 5500 5498 5496 5495 5493 5493 5492 5491 5491 5491 5491 5491 5492 5493 5494 5495 5496 5497 5498
5551 5549 5546 5545 5542 5539 5537 5534 5532 5529 5527 5524 5521 5519 5517 5514 5512 5511 5509 5506 5504 5501 5499 5497 5494 5491 5489 5487 5486 5484 5483 5483 5483 5482 5482 5482 5483 5484 5484 5485 5486 5487 5488 5489
5542 5540 5538 5536 5534 5531 5528 5526 5524 5521 5519 5516 5514 5511 5509 5507 5505 5503 5500 5498 5496 5493 5491 5489 5486 5483 5481 5479 5477 5476 5475 5474 5474 5473 5474 5474 5474 5475 5476 5477 5477 5479 5480 5481
5534 5532 5530 5528 5526 5523 5520 5518 5516 5513 5511 5508 5506 5504 5501 5499 5497 5495 5493 5490 5488 5486 5483 5481 5478 5476 5473 5471 5470 5468 5467 5466 5465 5465 5465 5466 5466 5467 5467 5468 5470 5471 5472 5472
5527 5524 5522 5520 5518 5516 5513 5510 5508 5506 5503 5501 5498 5496 5494 5492 5490 5487 5485 5483 5481 5478 5476 5473 5470 5468 5465 5463 5462 5461 5460 5459 5458 5458 5458 5458 5458 5459 5459 5460 5462 5463 5464 5465
5520 5518 5515 5513 5511 5508 5505 5503 5501 5498 5496 5493 5491 5488 5486 5484 5482 5480 5478 5475 5473 5471 5468 5465 5462 5460 5457 5456 5454 5453 5452 5452 5451 5451 5451 5451 5451 5452 5452 5453 5455 5456 5457 5458
5513 5511 5509 5507 5504 5501 5498 5496 5493 5491 5488 5486 5484 5481 5479 5476 5474 5472 5470 5468 5466 5463 5460 5458 5455 5453 5450 5448 5447 5446 5445 5445 5445 5445 5445 5445 5445 5446 5446 5447 5448 5449 5451 5452
5506 5504 5502 5500 5497 5494 5491 5489 5486 5484 5481 5479 5476 5474 5471 5469 5467 5465 5463 5461 5458 5456 5453 5451 5448 5446 5444 5442 5440 5440 5439 5439 5439 5439 5439 5439 5439 5440 5441 5441 5442 5444 5445 5446
5500 5498 5495 5493 5490 5487 5484 5482 5479 5476 5474 5472 5469 5467 5464 5462 5460 5458 5455 5453 5451 5449 5447 5444 5442 5440 5438 5437 5435 5434 5434 5433 5433 5433 5433 5434 5435 5435 5436 5436 5437 5438 5439 5440
5493 5491 5489 5486 5483 5480 5478 5475 5472 5470 5467 5465 5463 5460 5458 5455 5453 5451 5448 5446 5444 5442 5440 5438 5436 5434 5433 5432 5431 5430 5429 5428 5428 5428 5428 5429 5430 5430 5431 5432 5433 5434 5435 5436
5486 5484 5482 5479 5476 5474 5471 5468 5466 5463 5461 5458 5456 5454 5451 5449 5447 5445 5442 5440 5438 5436 5434 5432 5431 5429 5428 5427 5426 5425 5424 5424 5424 5424 5424 5425 5425 5426 5427 5428 5429 5430 5431 5432
5479 5477 5474 5472 5469 5467 5464 5462 5459 5457 5454 5452 5450 5448 5445 5443 5441 5439 5436 5435 5433 5431 5429 5427 5426 5425 5424 5423 5422 5421 5421 5420 5420 5420 5420 5421 5421 5422 5423 5424 5425 5426 5427 5428
5471 5469 5467 5464 5462 5460 5457 5455 5453 5451 5448 5446 5444 5442 5440 5438 5436 5434 5432 5430 5428 5426 5425 5423 5422 5420 5419 5418 5418 5417 5417 5417 5417 5417 5417 5417 5418 5419 5420 5421 5422 5423 5424 5425
5464 5462 5460 5457 5455 5453 5451 5449 5447 5445 5443 5440 5438 5436 5434 5432 5430 5428 5427 5425 5423 5422 5420 5419 5418 5417 5416 5415 5414 5414 5414 5413 5413 5414 5414 5414 5414 5415 5416 5417 5419 5420 5421 5422
5457 5455 5453 5451 5449 5447 5445 5443 5441 5439 5437 5435 5432 5431 5429 5427 5425 5423 5422 5420 5418 5417 5415 5414 5414 5413 5412 5411 5411 5411 5411 5411 5411 5411 5411 5411 5411 5412 5413 5414 5416 5417 5418 5419
5451 5449 5447 5445 5443 5441 5438 5437 5435 5433 5431 5429 5427 5425 5423 5422 5420 5418 5417 5415 5414 5412 5411 5410 5409 5409 5408 5408 5408 5408 5408 5407 5408 5408 5408 5408 5409 5410 5411 5412 5413 5414 5415 5417
5444 5442 5440 5439 5437 5435 5433 5431 5429 5427 5426 5424 5422 5420 5419 5417 5415 5413 5412 5410 5409 5408 5407 5406 5405 5404 5404 5404 5404 5404 5404 5404 5404 5405 5405 5406 5407 5408 5409 5410 5411 5412 5413 5414